DW2987 Weather Reports


Display with metric or nautical units.
time (UTC)temp
F
wind
direction
speed
MPH
gust
MPH
rain 1hr
in
rain 24hr
in
rain mn
in
humidity
%
barometer
mb
20260508003002 0 0.0 0.0 0.00 0.00 0.00 1010.4
20260508001602 0 0.0 0.0 0.00 0.00 0.00 1010.4
20260508000055 0 0.0 0.0 0.00 0.00 0.00 1010.4
20260507234651 0 0.0 0.0 0.00 0.00 0.00 1010.5
20260507233046 0 0.0 0.0 0.00 0.00 0.00 1010.5
20260507231541 0 0.0 0.0 0.00 0.00 0.00 1010.6
20260507230054 0 0.0 0.0 0.00 0.00 0.00 1010.8
20260507224536 0 0.0 0.0 0.00 0.00 0.00 1010.6
20260507223101 0 0.0 0.0 0.00 0.00 0.00 1010.5
20260507221523 0 0.0 0.0 0.00 0.00 0.00 1010.5
20260507220019 0 0.0 0.0 0.00 0.00 0.00 1010.5
20260507214515 0 0.0 0.0 0.00 0.00 0.00 1010.3
20260507213011 0 0.0 0.0 0.00 0.00 0.00 1010.2
20260507211506 0 0.0 0.0 0.00 0.00 0.00 1010.2
20260507210001 0 0.0 0.0 0.00 0.00 0.00 1010.3
20260507204557 0 0.0 0.0 0.00 0.00 0.00 1010.3
20260507203054 0 0.0 0.0 0.00 0.00 0.00 1010.2
20260507201604 64 151 0.0 3.0 0.00 0.00 0.00 68 1010.0
20260507200104 64 151 0.0 6.0 0.00 0.00 0.00 67 1009.9
20260507194549 64 151 0.0 7.0 0.00 0.00 0.00 66 1009.8
20260507193050 65 148 0.0 6.0 0.00 0.00 0.00 65 1009.4
20260507191545 66 149 2.0 8.0 0.00 0.00 0.00 64 1009.4
20260507190049 67 137 0.0 7.0 0.00 0.00 0.00 60 1009.1
20260507184543 67 137 0.0 3.0 0.00 0.00 0.00 54 1008.7
20260507183043 68 137 0.0 0.0 0.00 0.00 0.00 53 1008.7
20260507181542 68 137 0.0 0.0 0.00 0.00 0.00 52 1008.5
20260507180045 68 137 0.0 2.0 0.00 0.00 0.00 52 1008.4
20260507174552 68 137 0.0 1.0 0.00 0.00 0.00 52 1008.4
20260507173041 68 137 0.0 2.0 0.00 0.00 0.00 51 1008.4
20260507171544 69 137 0.0 2.0 0.00 0.00 0.00 52 1008.2
20260507170044 69 138 0.0 2.0 0.00 0.00 0.00 52 1008.2
20260507164539 69 138 0.0 4.0 0.00 0.00 0.00 51 1008.1
20260507163042 69 138 0.0 4.0 0.00 0.00 0.00 51 1008.1
20260507161547 69 140 0.0 3.0 0.00 0.00 0.00 51 1008.2
20260507160041 70 136 0.0 4.0 0.00 0.00 0.00 52 1008.1
20260507154542 70 136 0.0 4.0 0.00 0.00 0.00 51 1008.0
20260507153042 71 136 0.0 2.0 0.00 0.00 0.00 50 1008.0
20260507151537 72 136 0.0 3.0 0.00 0.00 0.00 50 1008.0
20260507150041 73 138 0.0 4.0 0.00 0.00 0.00 48 1008.1
20260507144535 74 138 1.0 4.0 0.00 0.00 0.00 48 1008.2
20260507143033 73 139 0.0 5.0 0.00 0.00 0.00 47 1008.3
20260507141531 73 139 0.0 5.0 0.00 0.00 0.00 49 1008.4
20260507140031 72 138 0.0 4.0 0.00 0.00 0.00 50 1008.5
20260507134525 70 138 0.0 7.0 0.00 0.00 0.00 53 1008.6
20260507133025 70 142 1.0 4.0 0.00 0.00 0.00 51 1008.8
20260507131526 69 142 0.0 7.0 0.00 0.00 0.00 54 1009.0
20260507130029 68 138 0.0 3.0 0.00 0.00 0.00 54 1009.0
20260507124521 69 138 0.0 5.0 0.00 0.00 0.00 53 1009.2
20260507123021 69 138 0.0 7.0 0.00 0.00 0.00 52 1009.3
20260507121519 70 140 0.0 5.0 0.00 0.00 0.00 54 1009.2
20260507120017 68 138 2.0 8.0 0.00 0.00 0.00 53 1009.3
20260507114519 68 110 0.0 7.0 0.00 0.01 0.00 53 1009.7
20260507113016 68 82 3.0 8.0 0.00 0.01 0.00 55 1009.8
20260507111517 67 69 0.0 6.0 0.00 0.01 0.00 58 1009.9
20260507110014 66 55 0.0 3.0 0.00 0.01 0.00 60 1010.1
20260507104515 66 55 1.0 5.0 0.00 0.01 0.00 57 1010.2
20260507103013 68 53 0.0 5.0 0.00 0.01 0.00 56 1010.2
20260507101510 66 51 0.0 5.0 0.00 0.01 0.00 57 1010.3
20260507100009 66 47 0.0 5.0 0.00 0.01 0.00 58 1010.2
20260507094509 67 51 0.0 6.0 0.00 0.02 0.00 56 1010.2
20260507093007 67 32 0.0 1.0 0.00 0.02 0.00 57 1010.2
20260507091507 0 0.0 0.0 0.00 0.02 0.00 1010.3
20260507090100 0 0.0 0.0 0.00 0.02 0.00 1010.4
20260507084559 0 0.0 0.0 0.00 0.02 0.00 1010.3
20260507083107 0 0.0 0.0 0.00 0.02 0.00 1010.1
20260507081556 0 0.0 0.0 0.00 0.02 0.00 1010.2
20260507080042 0 0.0 0.0 0.00 0.02 0.00 1010.2
20260507074538 0 0.0 0.0 0.00 0.02 0.00 1010.2
20260507073046 0 0.0 0.0 0.00 0.02 0.00 1010.2
20260507071531 0 0.0 0.0 0.00 0.02 0.00 1010.2
20260507070035 0 0.0 0.0 0.00 0.02 0.00 1010.1
20260507064533 0 0.0 0.0 0.00 0.02 0.00 1010.0
20260507063022 0 0.0 0.0 0.00 0.02 0.00 1009.8
20260507061512 0 0.0 0.0 0.00 0.02 0.00 1009.8
20260507060016 0 0.0 0.0 0.00 0.02 0.00 1009.7
20260507054503 0 0.0 0.0 0.00 0.02 0.00 1009.7
20260507053059 0 0.0 0.0 0.00 0.02 0.00 1009.5
20260507051554 0 0.0 0.0 0.00 0.02 0.00 1009.0
20260507050049 0 0.0 0.0 0.00 0.02 0.00 1009.0
20260507044546 0 0.0 0.0 0.00 0.02 0.00 1008.9
20260507043043 0 0.0 0.0 0.00 0.02 0.00 1008.6
20260507041543 0 0.0 0.0 0.00 0.02 0.00 1008.6
20260507040033 0 0.0 0.0 0.00 0.02 0.00 1008.4
20260507034528 0 0.0 0.0 0.00 0.02 0.00 1008.4
20260507033027 0 0.0 0.0 0.00 0.02 0.00 1008.2
20260507031525 0 0.0 0.0 0.00 0.02 0.00 1008.1
20260507030015 0 0.0 0.0 0.00 0.02 0.00 1008.2
20260507024512 0 0.0 0.0 0.00 0.02 0.00 1008.3
20260507023005 0 0.0 0.0 0.00 0.02 0.00 1008.3
20260507021501 0 0.0 0.0 0.00 0.02 0.00 1008.2
20260507020109 0 0.0 0.0 0.00 0.02 0.00 1008.3
20260507014604 0 0.0 0.0 0.00 0.02 0.00 1008.1
20260507013051 0 0.0 0.0 0.00 0.02 0.00 1008.1
20260507011544 0 0.0 0.0 0.00 0.02 0.00 1008.0
20260507010040 0 0.0 0.0 0.00 0.02 0.00 1008.1
20260507004540 0 0.0 0.0 0.00 0.02 0.00 1008.0